[Iaude] MPEC B157: 2012 OP4 = 2019 BR4 [a=2.12, e=0.66, i=20.7, H=20.0, PHA]

mpec at mpcdb1.cfa.harvard.edu mpec at mpcdb1.cfa.harvard.edu
Thu Jan 31 06:21:16 EST 2019


M.P.E.C. 2019-B157                               Issued 2019 Jan. 31, 11:16 UT
 
     The Minor Planet Electronic Circulars contain information on unusual
         minor planets and routine data on comets.  They are published
    on behalf of Division F of the International Astronomical Union by the
          Minor Planet Center, Smithsonian Astrophysical Observatory,
                          Cambridge, MA 02138, U.S.A.

             Prepared using the Tamkin Foundation Computer Network

                              MPC at CFA.HARVARD.EDU
            URL https://www.minorplanetcenter.net/    ISSN 1523-6714


                              2012 OP4 = 2019 BR4
 
                           Revision to MPEC 2012-O47
 
Orbital elements:
2012 OP4 = 2019 BR4                                 PHA, Earth MOID = 0.0487 AU
Id. R. Weryk, R. Maton, F. Manca
Epoch 2019 Apr. 27.0 TT = JDT 2458600.5                 MPC
M  45.70188              (2000.0)            P               Q
n   0.31991487     Peri.  262.82688     +0.65129255     -0.72940662
a   2.1172872      Node   143.61251     +0.75695608     +0.64384858
e   0.6583932      Incl.   20.65352     -0.05324948     +0.23113848
P   3.08           H   20.0           G   0.15           U   0
Residuals in seconds of arc
120728 J75  0.2-  0.4+    120731 807  0.3+  0.0     120817 474  0.1-  0.3+
120728 J75  0.7+  0.0     120731 704  0.3+  0.4+    120818 J95  0.2-  0.3+
120728 J75  0.7-  0.2-    120731 704  0.6+  1.1+    120818 J95  0.3-  0.3+
120728 470  1.5-  0.2-    120731 704  0.2+  0.4+    120818 J95  0.1-  0.2+
120728 470  0.0   0.3+    120731 704  0.3-  0.7+    120819 160  0.1-  0.5+
120728 470  0.1-  0.1-    120802 160  0.1-  0.4+    120819 160  1.0-  0.6+
120728 470  0.0   0.3-    120802 160  0.4+  0.2-    120819 160  0.1+  0.1+
120728 J75  0.3-  0.1-    120802 160  0.2-  0.2-    120822 474  0.5-  0.3+
120728 J75  0.5-  0.1+    120802 H21  0.3-  0.2-    120822 474  0.2+  0.1+
120728 J75  0.9-  0.2-    120802 H21  0.3-  0.2+    120822 474  0.6-  1.3-
120728 H21  0.0   0.1-    120802 H21  0.0   0.1-    120822 474  0.2+  0.2-
120728 H21  0.2-  0.3-    120802 H21  0.2+  0.4-    120822 474  1.0-  0.1+
120728 H21  0.0   0.1+    120802 160  0.4-  0.4-    120822 474  0.5-  0.3+
120728 H21  0.5-  0.1-    120803 160  0.3-  0.6-    121213 568  0.3-  0.0
120728 H36  0.1-  0.5-    120803 160  0.3+  0.5-    121218 291  0.3+  0.6+
120728 H36  0.2+  0.4-    120803 160  0.2-  0.4-    121218 291  0.1+  0.1+
120728 H36  0.1-  0.4-    120803 160  0.2-  0.2-    121218 291  0.0   0.0
120728 I48  1.2-  0.4-    120803 160  0.1-  0.1+    130314 291  0.4+  0.5+
120728 I48  0.6-  0.1+    120805 160  0.5+  0.4+    130314 291  0.3+  0.0
120728 I48  0.9-  0.1+    120805 160  0.3-  0.4-    130314 291  0.2+  0.1-
120728 I48  0.5-  0.9+    120805 160  0.6-  0.3+    150726 291  0.1-  0.1+
120728 718  0.0   0.2-    120807 H45  0.7-  0.0     150726 291  0.0   0.1-
120728 704  1.5+  0.4-    120807 H45  0.1-  0.5-    150726 291  0.0   0.0
120728 718  0.8-  0.5+    120807 H45  0.2-  0.6-    151222 807  0.1-  0.2-
120728 704  0.2-  1.2+    120807 H45  0.2-  0.1-    151222 807  0.1-  0.3-
120728 718  0.1-  0.1+    120807 H45  0.6-  0.4-    151222 807  0.2-  0.3-
120728 704  0.2-  0.8+    120807 H45  0.1-  0.4-    151222 807  0.2+  0.0
120728 104  0.8-  0.5-    120807 H45  0.2-  0.2-    151222 807  0.1+  0.2-
120728 104  0.4-  0.2-    120807 H45  0.6-  0.7-    160211 F51  0.2-  0.1+
120728 104  0.5-  0.5-    120809 B75  0.2+  0.4-    160211 F51  0.1+  0.2+
120728 595  0.1-  1.3-    120809 B75  0.3-  0.2+    160211 F51  0.0   0.1+
120728 595  0.1-  0.2-    120809 B75  0.5-  0.4+    160307 F51  0.1+  0.2-
120728 160  0.3-  0.3+    120809 B75  0.4+  0.7+    160307 F51  0.0   0.1-
120728 160  0.2-  0.6+    120809 B75  0.6-  0.4+    160307 F51  0.1+  0.2-
120728 160  0.1-  0.1+    120810 160  0.7-  0.2-    160310 F51  0.2+  0.1+
120728 160  0.1+  0.0     120810 160  0.3-  0.0     160310 F51  0.0   0.3+
120729 I93  0.0   0.1+    120810 160  0.9-  0.1+    160310 F51  0.1+  0.1-
120729 I93  0.2-  0.0     120810 J95  0.1+  0.3-    160312 291  1.1+  0.7+
120729 954  0.2-  0.3-    120810 J95  0.1-  0.2-    160312 291  1.4+  0.4+
120729 I93  0.1-  0.2+    120810 J95  0.0   0.2-    160312 291  0.3-  0.4-
120729 954  1.3-  0.5-    120812 160  0.1-  0.2-    190128 T08  0.1+  0.1-
120729 954  0.5-  0.3-    120812 160  0.2-  0.1-    190128 T08  0.1-  0.0
120729 807  0.1-  0.2-    120812 160  0.1-  0.1-    190128 T08  0.3-  0.1-
120729 807  0.1-  0.1-    120812 H45  0.3-  0.2-    190129 807  0.2-  0.0
120729 807  0.2-  0.0     120812 H45  0.2-  0.1-    190129 807  0.3-  0.1+
120729 807  0.1-  0.0     120812 H45  0.3-  0.2-    190129 807  0.1-  0.1+
120729 807  0.1-  0.1-    120812 H45  0.0   0.4-    190129 807  0.1-  0.1+
120729 204  0.1-  0.3+    120812 H45  0.7-  0.2-    190129 807  0.2-  0.0
120729 204  0.6-  0.2-    120812 H45  0.0   0.2-    190129 807  0.1-  0.1+
120729 204  0.4-  0.3-    120812 H45  0.4+  0.1-    190129 H01  0.2-  0.0
120730 J95  0.1-  0.1-    120812 H45  0.4+  0.2-    190129 H01  0.1-  0.1-
120730 J95  0.1-  0.1-    120813 C73  0.4+  0.1-    190129 H01  0.1-  0.1+
120730 J95  0.0   0.3+    120813 C73  0.3+  0.0     190129 H01  0.0   0.1+
120730 807  0.0   0.0     120813 C73  0.2+  0.1-    190129 Q67  0.1-  0.2+
120730 807  0.2+  0.1-    120813 C73  0.6+  0.2-    190129 Q67  0.4-  0.3+
120730 807  0.0   0.0     120813 C73  0.2+  0.0     190129 Q67  0.0   0.3+
120730 807  0.1-  0.1-    120813 C73  0.2+  0.1+    190129 P93  0.1-  0.1-
120730 704  1.0-  1.3+    120813 C73  0.1+  0.0     190129 P93  0.1+  0.4-
120730 704  0.3-  0.1+    120813 C73  0.4+  0.0     190129 P93  0.4+  0.2+
120730 704  0.2-  1.0+    120813 C73  0.3+  0.1-    190129 P93  0.3+  0.2+
120730 704  0.1+  0.8+    120813 C73  0.2-  0.0     190129 P93  0.1+  0.1+
120730 704  0.5+  0.9+    120813 C73  0.1+  0.1-    190129 L01  0.0   0.2+
120730 704  0.1+  0.9+    120813 C73  0.7+  0.1+    190129 L01  0.0   0.3+
120730 704  0.1+  1.5+    120813 C73  0.6-  0.3+    190129 L01  0.1-  0.0
120730 704  0.4+  0.5+    120813 C73  0.2-  0.2+    190129 L01  0.1-  0.0
120730 711  0.1-  0.2-    120813 C73  1.7+  0.3-    190129 L01  0.1+  0.0
120730 711  0.1-  0.0     120813 C73  1.6+  0.4-    190129 L01  0.0   0.1+
120730 711  0.2-  0.1-    120813 C73  1.4+  0.4-    190129 K61  0.7-  0.9-
120730 711  0.2-  0.1-    120813 C73  1.5+  0.3-    190129 K61  1.0+  0.2+
120730 711  0.2-  0.0     120813 C73  0.9+  0.0     190129 K61  0.4+  0.0
120730 711  0.0   0.1-    120813 C73  1.7+  0.3-    190130 474  0.1-  0.1-
120730 711  0.1+  0.0     120813 C73  1.8+  0.2-    190130 474  0.1-  0.0
120730 711  0.2-  0.1-    120813 C73  1.2+  0.4-    190130 474  0.2-  0.2+
120730 711  0.1-  0.1-    120813 C73  1.1+  0.6-    190130 474  0.1-  0.1-
120730 711  0.1+  0.0     120813 C73  1.6+  0.4-    190130 474  0.4-  0.4-
120730 711  0.1-  0.0     120814 H45  0.1-  0.0     190130 K33  0.0   0.3+
120730 711  0.1-  0.2-    120814 H45  0.0   0.0     190130 J95  0.2+  0.0
120730 704  0.0   1.3+    120814 H45  0.6+  0.2-    190130 J95  0.0   0.2-
120730 704  0.1+  0.6+    120814 H45  0.0   0.2-    190130 J95  0.0   0.1-
120730 711  0.1-  0.0     120814 H45  0.2-  0.2+    190130 K33  0.9-  0.4-
120730 711  0.0   0.1-    120814 H45  0.3+  0.2-    190130 J95  0.3+  0.2-
120730 711  0.1-  0.1-    120814 H45  0.1-  0.1+    190131 K33  0.9-  1.2+
120730 711  0.0   0.1-    120814 H45  0.0   0.1+    190131 K33  0.7+  0.2-
120730 711  0.0   0.0     120814 H45  0.3+  0.1-    190131 Z99  0.1-  0.1-
120730 711  0.0   0.1-    120814 H45  0.1-  0.0     190131 Z99  0.0   0.0
120730 711  0.1-  0.1-    120814 H45  0.3+  0.0     190131 Z99  0.3+  0.1+
120730 711  0.1-  0.0     120814 H45  0.5+  0.0     190131 691  0.0   0.1+
120730 711  0.1-  0.0     120817 474  1.0-  0.4+    190131 691  0.0   0.1+
120731 807  0.4-  0.1-    120817 474  0.5-  0.4+    190131 691  0.0   0.3+
120731 807  0.3-  0.1-    120817 474  0.6-  0.3+
120731 807  0.2-  0.3+    120817 474  0.6-  0.5+

Ephemeris:
2012 OP4                 a,e,i = 2.12, 0.66, 21                  q = 0.7233
Date    TT    R. A. (2000) Decl.     Delta      r     Elong.  Phase     V
2019 01 01    20 43 21.1 -72 33 04   0.2780  0.8422    52.2   112.7    21.2
...
2019 01 16    08 45 56.1 -75 55 27   0.1652  0.9762    82.6    87.7    19.1
...
2019 01 24    08 47 35.0 -44 02 49   0.1433  1.0556   116.3    56.7    18.0
...
2019 01 30    08 47 34.0 -19 06 21   0.1599  1.1169   143.0    32.0    17.6
2019 01 31    08 47 32.7 -15 32 42   0.1653  1.1272   146.8    28.6    17.6
2019 02 01    08 47 31.7 -12 12 17   0.1714  1.1375   150.4    25.3    17.6
...
2019 02 07    08 47 36.4 +03 23 54   0.2190  1.1994   165.4    11.9    17.8
...
2019 02 15    08 48 37.1 +15 24 16   0.3030  1.2820   164.4    11.9    18.7
...
2019 03 02    08 54 11.0 +25 06 54   0.4968  1.4345   147.4    21.9    20.3

Gareth V. Williams           (C) Copyright 2019 MPC           M.P.E.C. 2019-B157



More information about the Iaude mailing list